User: anonymous   Login
Location: Unspecified
(0.0000°N, 0.0000°E)
Time: 01:54:51
(UTC+00:00)
Language:

USA 8 - Orbit

View from above orbital plane
View from above orbital plane
View from above satellite
View from above satellite

Ground track
Ground track

The orbit data is extracted from the following two-line orbital elements,

1 15543U 85010B   17142.51134768 0.00000000  00000-0  00000-0 0    05
2 15543  17.5776 349.1060 0135976 321.8414  37.0929  0.99805016    08
Epoch (UTC): 22 May 2017 12:16:20
Eccentricity: 0.0135976
inclination: 17.5776°
perigee height: 35342 km
apogee height: 36493 km
right ascension of ascending node: 349.1060°
argument of perigee: 321.8414°
revolutions per day: 0.99805016
mean anomaly at epoch: 37.0929°
orbit number at epoch: 0

The dashed part of the orbit path shows where the satellite is in the earth's shadow,  

DLR